Theta_e
345 341 343 340 341 345 347 350 349 339 337 347 345 345 345 347 351 353 353 363 362 364 362 362 359 358 356 355 352 353 356 356 355 352 356 354 355 357 358 359 359 359 358
341 341 341 342 344 346 345 347 347 349 343 343 345 349 345 347 348 354 357 356 363 361 362 362 359 358 357 354 354 358 357 358 355 351 353 355 353 357 357 359 359 358 359
341 336 339 340 344 342 343 345 349 348 345 344 345 342 342 347 348 344 351 355 359 363 359 361 360 359 358 359 356 354 355 356 356 354 351 354 357 359 359 359 358 356 357
339 338 337 341 342 341 339 341 347 342 342 339 338 340 344 348 348 341 348 353 353 354 357 360 361 360 359 355 353 353 353 355 356 356 355 354 355 357 359 359 358 357 356
342 338 339 341 340 340 335 339 344 344 337 337 342 339 342 347 345 342 343 345 347 351 350 359 360 361 358 356 355 353 353 353 354 355 354 353 355 356 358 358 358 357 356
340 344 340 338 340 338 338 339 344 345 343 337 339 338 338 338 338 340 344 344 347 346 349 350 350 354 359 356 355 355 354 353 354 354 353 354 355 357 357 357 357 357 356
348 344 340 338 337 335 335 337 341 341 339 338 329 331 332 338 341 340 340 340 346 345 344 346 350 349 354 357 356 355 355 355 354 355 354 353 355 355 356 356 355 356 356
339 341 339 335 334 333 339 339 342 332 333 336 331 328 326 334 342 340 337 341 342 344 345 344 345 345 345 350 351 354 354 354 354 354 353 353 353 354 355 354 354 355 354
346 343 338 336 335 340 339 336 341 334 334 337 336 335 330 328 334 339 335 339 338 333 340 345 340 344 344 349 351 351 354 354 351 353 352 353 353 352 352 353 353 352 353
343 342 341 338 340 339 337 335 353 348 345 341 343 340 335 335 330 321 332 336 339 338 337 342 340 338 339 344 353 354 354 355 354 352 352 352 352 352 351 351 351 352 352
346 344 343 343 342 342 339 345 348 346 348 345 344 336 333 334 333 322 322 328 335 339 345 345 336 336 336 338 345 353 355 354 354 353 351 351 351 351 351 351 351 351 351
345 346 347 345 345 348 350 349 350 350 347 346 347 343 335 335 331 327 325 326 328 335 340 341 339 335 333 335 352 355 355 353 351 351 350 351 349 348 348 348 348 348 348
343 343 348 347 347 348 348 350 348 347 347 346 346 346 341 343 338 333 331 328 327 333 337 340 341 335 340 340 347 355 354 350 348 346 346 348 349 351 349 348 347 346 347
343 347 351 350 348 347 349 349 347 348 349 349 346 346 345 347 347 342 337 332 328 331 333 336 343 338 340 344 350 354 349 347 346 344 344 345 347 347 349 349 349 349 349
344 345 346 344 344 349 352 349 345 346 347 346 345 348 345 346 346 343 341 338 332 325 328 333 334 341 341 342 347 348 346 346 346 344 342 343 345 347 347 347 346 345 346
344 345 344 341 348 348 352 352 346 344 342 338 344 345 344 343 345 348 346 342 338 334 327 334 336 340 339 343 350 346 344 344 344 342 342 341 342 343 344 345 345 343 343
345 346 347 345 348 350 352 348 347 346 342 340 342 344 345 345 345 345 344 344 340 338 331 337 340 341 336 341 344 343 343 338 337 337 336 334 333 333 333 334 335 340 343
346 344 348 347 346 348 347 344 343 348 344 343 344 345 343 350 345 344 343 343 342 340 338 333 338 340 337 343 343 337 344 338 335 331 330 329 328 327 327 327 327 330 332
347 347 348 346 346 347 346 346 347 346 346 347 346 344 345 345 344 345 342 342 342 343 340 337 336 340 340 344 343 340 331 329 328 328 327 327 326 325 325 323 323 324 326
345 345 347 345 345 347 344 342 343 344 345 347 347 346 345 342 345 345 342 341 340 339 338 336 334 335 339 342 341 338 330 328 321 325 326 326 326 326 324 323 324 322 319
344 345 345 345 341 338 337 336 340 344 346 345 346 348 346 345 341 339 341 338 337 338 336 334 334 334 334 337 339 340 332 327 324 324 319 322 317 316 319 324 325 324 322
343 343 345 337 332 330 326 331 335 341 346 346 345 346 348 344 341 339 337 335 337 337 335 334 333 333 332 335 337 339 334 326 328 328 327 322 317 313 314 316 321 319 318
339 340 337 333 328 326 326 326 334 339 344 340 336 337 343 342 341 340 336 333 330 332 337 340 333 328 328 326 329 334 334 331 332 329 329 319 319 314 315 317 319 318 316
336 335 331 327 324 322 320 322 330 337 340 329 326 329 331 333 330 338 329 324 323 325 325 325 321 320 319 320 323 331 336 329 326 325 325 319 318 318 316 314 317 316 314
331 329 328 327 321 319 317 318 323 335 332 324 323 321 326 329 324 330 326 322 321 322 323 322 321 319 319 319 319 326 323 328 323 320 317 326 325 317 313 310 311 315 313
326 324 321 322 320 319 315 316 321 331 331 322 319 316 318 318 316 322 329 326 321 320 321 316 314 314 316 316 317 309 313 328 322 318 318 320 321 319 313 314 312 312 309
Wind_Speed
2 1 3 2 4 4 4 5 4 4 5 7 10 8 15 16 11 2 3 9 6 7 3 7 4 4 4 5 1 5 2 4 5 6 7 12 14 16 19 19 17 16 13
2 4 3 4 3 2 4 5 4 4 8 7 4 7 8 12 12 9 3 3 7 3 3 7 5 5 5 5 1 10 10 9 4 3 5 6 10 11 17 18 18 16 15
6 5 4 2 3 2 6 7 6 9 5 3 10 7 14 4 7 10 4 2 2 3 2 5 6 6 5 8 8 8 8 9 8 4 2 2 5 11 15 16 16 16 14
5 4 2 1 4 5 5 3 1 5 5 4 5 6 7 5 5 7 5 3 3 2 1 4 5 5 6 7 7 8 9 9 8 7 5 2 3 6 12 14 14 13 13
5 4 1 3 5 3 2 3 2 2 4 5 3 2 4 2 4 6 7 3 4 3 2 3 6 8 8 7 7 8 10 11 9 10 7 4 4 5 8 12 13 12 12
4 3 2 1 2 3 3 3 5 3 3 5 3 1 4 3 3 4 3 6 6 5 4 4 2 4 8 7 5 8 10 12 12 13 11 8 5 6 8 10 11 12 13
3 1 2 2 1 3 2 2 2 4 4 3 2 2 2 3 4 2 2 2 6 7 8 7 3 3 3 6 6 7 9 12 14 15 15 12 9 7 9 10 11 12 14
6 6 4 2 2 1 4 5 3 1 3 1 1 1 4 3 2 4 3 3 4 5 5 5 4 5 2 1 2 5 9 12 13 15 15 12 11 10 10 9 11 12 13
5 5 4 3 4 3 1 2 2 4 3 2 4 3 3 3 2 4 5 4 5 3 5 4 4 4 4 1 4 4 6 10 11 14 14 13 12 12 11 11 10 10 11
5 3 4 3 2 2 3 2 2 0 1 3 1 4 5 1 2 3 3 5 5 7 6 2 2 3 4 1 4 5 3 8 10 12 12 12 12 12 12 12 12 12 12
4 5 5 5 2 1 0 3 2 3 2 2 2 1 3 2 2 2 1 5 4 2 2 3 4 2 1 2 3 4 2 3 8 11 10 10 10 11 11 11 12 12 11
4 6 6 3 4 4 4 2 0 2 2 1 1 3 4 2 3 3 2 2 3 3 2 3 4 2 0 3 1 8 5 4 5 9 9 8 7 9 9 9 9 10 10
2 4 5 5 5 5 3 3 1 2 2 1 1 2 3 2 2 2 3 2 2 2 3 2 2 2 1 2 3 6 7 5 6 5 7 9 6 6 8 8 9 9 9
4 4 6 5 3 4 3 3 1 0 2 1 0 2 2 3 1 4 4 4 1 1 2 5 3 3 2 2 2 5 4 7 4 6 4 7 8 6 6 6 7 7 8
4 5 1 4 1 4 5 4 2 2 4 1 2 1 0 2 1 2 2 3 5 3 3 3 2 2 3 1 4 4 3 5 6 3 3 4 5 5 6 8 8 8 7
5 4 2 2 4 3 4 4 3 1 3 1 2 2 2 1 3 3 2 2 3 4 2 4 3 1 3 2 3 4 4 2 1 2 2 2 2 2 1 2 7 8 8
6 5 5 5 3 2 1 3 3 3 2 3 3 2 4 2 1 0 2 2 3 2 2 2 2 2 3 4 4 4 4 3 4 7 8 6 4 3 3 2 2 3 7
5 6 5 5 4 2 2 4 3 4 4 5 5 2 4 1 3 3 1 2 1 1 1 2 2 1 3 2 3 4 3 3 4 5 9 9 7 6 5 4 1 3 4
7 6 5 5 5 4 3 2 3 4 5 5 4 4 5 4 3 3 2 2 2 2 1 2 3 2 1 3 3 4 3 3 4 10 10 11 10 10 8 6 6 6 8
7 7 6 6 5 4 4 2 2 3 4 4 4 2 2 4 5 4 4 3 2 3 2 1 1 1 0 2 3 4 2 1 2 5 6 6 8 11 10 9 9 10 11
6 6 5 4 5 3 2 2 4 4 3 3 1 2 3 6 11 7 3 1 1 1 1 1 1 1 1 2 4 4 2 2 2 2 1 1 3 3 4 7 11 14 13
3 2 5 6 5 4 6 5 2 0 1 2 2 3 3 5 7 9 10 8 2 4 3 3 1 1 1 1 1 5 4 3 3 2 3 1 2 3 3 3 9 10 11
4 7 7 5 5 4 7 6 3 2 3 5 5 4 5 5 4 5 6 3 6 8 5 3 4 1 1 1 3 2 4 5 2 4 4 3 2 2 1 1 3 7 9
5 5 5 4 4 4 9 10 5 3 6 6 5 4 5 4 3 4 6 5 6 6 6 6 6 4 3 3 3 1 4 5 4 4 4 3 3 2 1 0 1 4 6
6 5 5 4 4 4 11 10 7 2 7 6 5 6 2 4 5 10 7 6 8 9 10 13 12 10 13 15 9 3 2 4 2 2 5 1 3 3 3 2 2 2 3
7 5 6 4 6 3 9 10 4 1 7 4 4 5 12 6 5 2 8 8 7 5 6 5 5 7 10 11 17 9 2 3 3 3 4 2 1 4 3 3 1 2 1
Wind_Direction
136 84 62 13 54 348 319 322 108 242 352 70 57 55 34 8 339 293 236 194 182 208 190 97 75 53 36 54 23 278 268 202 195 247 293 229 219 212 209 207 207 212 205
82 60 39 58 33 316 329 330 59 18 42 22 74 84 61 0 341 269 205 184 169 191 100 91 72 41 24 43 6 39 27 37 156 180 300 213 204 205 206 204 204 205 202
129 148 96 57 294 357 358 15 43 141 145 247 254 157 86 292 325 325 307 197 203 157 101 90 79 52 17 41 51 49 45 32 26 169 190 333 150 194 198 196 201 202 196
110 126 109 98 14 17 14 16 353 92 125 186 345 2 84 189 277 317 295 270 253 240 191 82 80 61 39 37 56 58 55 47 32 37 150 130 138 176 184 187 189 192 187
61 74 301 34 12 15 2 34 56 212 189 125 170 205 126 54 324 309 296 343 278 302 331 82 62 42 33 37 50 61 62 58 55 60 65 77 112 152 173 177 177 177 174
109 113 137 109 326 330 9 286 66 10 351 65 101 59 30 38 313 295 8 48 24 29 23 60 50 61 32 41 35 63 67 68 63 62 61 56 81 122 145 157 162 164 166
168 297 272 175 63 308 307 87 56 35 12 50 28 346 64 204 215 227 23 50 79 65 48 25 350 55 53 36 17 57 71 72 70 67 64 61 68 90 116 138 146 154 162
164 201 224 148 211 310 295 66 76 50 346 183 232 175 26 315 127 35 13 348 98 102 70 57 14 23 55 91 61 48 74 69 72 75 73 66 72 82 95 115 135 149 156
181 179 173 212 193 196 269 59 217 170 197 217 219 159 102 249 21 332 353 331 306 38 68 60 30 23 26 316 93 31 72 84 80 81 83 81 81 81 89 96 116 122 126
221 191 176 201 234 194 40 357 281 247 133 91 258 38 60 221 183 311 326 318 345 33 10 35 66 65 18 67 110 91 60 95 94 90 87 84 87 91 96 100 106 116 118
215 234 224 188 187 52 186 258 294 10 39 106 151 67 49 51 80 143 297 317 353 2 350 348 348 338 96 7 104 128 118 109 110 104 98 97 99 102 104 110 114 117 122
189 227 238 222 234 214 193 191 224 69 70 175 125 141 169 222 217 131 109 294 288 331 330 305 339 287 348 325 232 147 152 166 128 119 118 112 114 115 117 121 125 130 136
188 201 188 201 216 209 190 175 126 22 293 95 44 220 131 235 168 145 154 172 259 310 316 220 227 225 36 46 350 125 157 174 147 136 129 128 124 128 134 140 144 145 151
213 239 183 190 206 215 231 175 152 345 20 62 335 271 96 207 195 194 176 142 115 301 285 252 215 213 226 31 68 160 165 164 179 163 136 137 142 156 159 162 165 170 167
209 190 146 158 277 257 239 192 155 86 71 30 329 67 158 273 16 16 109 164 146 195 262 315 291 203 192 193 114 141 177 186 163 215 181 170 172 169 201 188 186 193 187
240 153 157 214 252 280 239 180 160 186 126 213 274 344 291 319 352 356 353 107 140 145 212 189 251 301 15 54 33 108 117 103 117 209 226 189 191 161 154 261 204 201 202
195 185 185 189 242 259 88 147 179 219 221 261 255 313 299 281 232 2 354 50 43 83 171 281 256 92 41 97 63 53 61 82 59 66 81 76 77 89 78 33 305 242 216
220 197 186 191 207 204 190 159 206 201 200 253 275 286 270 213 229 150 83 48 43 5 133 210 263 195 107 88 114 102 57 72 82 82 99 97 87 78 80 84 126 227 218
206 212 200 196 205 198 204 230 212 235 235 244 253 264 263 233 209 184 173 153 38 57 87 154 253 40 142 148 125 99 105 72 97 98 81 83 86 83 74 73 81 93 124
192 197 199 198 199 149 135 162 237 249 245 222 233 249 262 210 207 181 171 170 137 104 66 78 330 9 25 138 131 158 174 116 121 93 73 90 81 80 82 78 86 89 90
197 195 198 138 108 102 37 324 300 276 195 178 231 243 65 73 80 61 60 315 239 160 137 226 247 179 157 118 198 179 132 101 30 93 78 40 65 36 54 75 95 99 92
38 74 101 107 92 72 7 355 341 114 300 124 78 3 108 105 73 100 80 59 293 183 188 167 199 322 356 75 151 170 139 155 199 188 149 95 76 46 21 20 105 110 106
96 63 70 74 77 40 359 326 319 114 86 75 67 48 62 48 72 117 111 88 59 41 58 156 131 79 92 28 314 197 190 195 192 159 136 152 125 125 117 76 144 127 119
96 88 90 88 75 38 1 358 337 102 95 68 64 67 98 80 19 158 119 86 59 50 56 70 78 75 51 304 233 179 195 125 77 61 360 154 149 152 147 183 256 113 121
105 93 70 73 62 22 6 1 352 107 102 87 56 42 56 100 354 141 119 105 94 89 61 76 78 71 57 44 33 107 80 134 107 73 19 352 153 89 34 317 330 47 33
97 98 90 69 66 33 8 360 352 70 116 91 57 33 36 29 15 135 143 142 133 145 119 70 37 30 36 39 39 38 325 149 125 106 21 32 345 119 167 216 227 271 42